Regional Weather Roundup
Issued by NWS

Home | Current Version | Previous Version | Text Only | Print | Product List | Glossary On
Versions: 1 2 3 4 5 6 7 8 9 10 11 12 13 14 15 16 17 18 19 20 21 22 23 24 25 26 27 28 29 30 31 32 33 34 35 36 37 38 39 40 41 42 43 44 45 46 47 48 49 50
000
ASUS43 KMKX 271610
RWRWI

WISCONSIN REGIONAL WEATHER ROUNDUP
NATIONAL WEATHER SERVICE MILWAUKEE/SULLIVAN WI
1000 AM CST FRI FEB 27 2015

NOTE: "FAIR" INDICATES FEW OR NO CLOUDS BELOW 12,000 FEET WITH NO
SIGNIFICANT WEATHER AND/OR OBSTRUCTIONS TO VISIBILITY.

WIZ001-002-006>008-014>016-023>028-271700-
NORTHWEST WISCONSIN

CITY           SKY/WX    TMP DP  RH WIND       PRES   REMARKS
SUPERIOR ARPT  SUNNY      3  -7  64 SW10      30.50S WCI -13
ASHLAND        SUNNY      3  -9  57 SW9       30.47S WCI -12
HAYWARD        SUNNY      0 -10  63 SW8       30.46S WCI -14
SIREN          SUNNY      3  -6  64 W5        30.51S WCI  -6
CUMBERLAND     SUNNY      1  -8  66 SW5       30.48S WCI  -8
RICE LAKE      SUNNY      0  -9  65 W3        30.52R
CHETEK         SUNNY      2  -9  60 CALM      30.51S
LADYSMITH      SUNNY     -1  -9  68 CALM      30.49R
EAU CLAIRE     SUNNY      1  -9  62 SW8       30.54S WCI -13
MENOMONIE      SUNNY      5  -6  60 W8        30.55S WCI  -9
NEW RICHMOND   SUNNY      4  -5  67 W8        30.53S WCI  -9
OSCEOLA        SUNNY      4  -4  68 SW5       30.57S WCI  -6
$$

WIZ003>005-009-010-017-018-271700-
NORTH CENTRAL WISCONSIN

CITY           SKY/WX    TMP DP  RH WIND       PRES   REMARKS
MANITOWISH WTR SUNNY      2 -10  56 W8        30.38R WCI -12
ARBOR VITAE    SUNNY      4  -8  56 W10       30.38R WCI -11
WOODRUFF       SUNNY      4  -8  56 W10       30.38R WCI -11
RHINELANDER    SUNNY      2 -10  57 W15       30.39R WCI -17
EAGLE RIVER    SUNNY      3 -11  53 W9        30.37R WCI -12
LAND O LAKES   SUNNY      6  -8  50 W8        30.36R WCI  -7
PHILLIPS       SUNNY      2 -10  56 SW8       30.41S WCI -12
TOMAHAWK       SUNNY      4 -10  52 CALM      30.42R
MEDFORD        SUNNY      0 -10  61 SW5       30.44R WCI -10
MERRILL        SUNNY      3 -10  53 W8        30.44S WCI -10
$$

WIZ029-030-035-036-043>047-271700-
CENTRAL WISCONSIN

CITY           SKY/WX    TMP DP  RH WIND       PRES   REMARKS
WAUSAU         SUNNY      3 -10  54 W9        30.45S WCI -12
MOSINEE        SUNNY      3  -9  55 W9        30.47S WCI -11
MARSHFIELD     SUNNY      1 -11  57 W10       30.48R WCI -15
STEVENS POINT  SUNNY      4 -11  51 W6        30.50R WCI  -7
WAUPACA        SUNNY     10  -8  43 W6        30.53R WCI   0
WAUTOMA        SUNNY      8  -8  48 W9        30.54S WCI  -5
WISC RAPIDS    SUNNY      5 -10  50 SW8       30.52F WCI  -8
CAMP DOUGLAS   SUNNY      7  -6  56 W6        30.55R WCI  -3
$$

WIZ011>013-019>022-031-037>040-048>050-271700-
NORTHEAST WISCONSIN

CITY           SKY/WX    TMP DP  RH WIND       PRES   REMARKS
ANTIGO         SUNNY      2  -9  58 W12       30.41S WCI -14
SHAWANO        SUNNY     10  -6  48 W6        30.50S WCI   0
OCONTO         SUNNY      9  -5  54 W9        30.50S WCI  -5
STURGEON BAY   SUNNY      7  -6  56 W7        30.51R WCI  -5
GREEN BAY      SUNNY     10  -4  53 SW8       30.52R WCI  -2
MANITOWOC      SUNNY     12  -3  51 W9        30.53S WCI   0
APPLETON       SUNNY      7  -6  56 SW7       30.51R WCI  -5
CLINTONVILLE   SUNNY      9  -8  47 W3        30.51R
OSHKOSH        SUNNY      7  -5  57 W8        30.53R WCI  -6
$$

WIZ032>034-041-042-053>061-271700-
SOUTHWEST WISCONSIN

CITY           SKY/WX    TMP DP  RH WIND       PRES   REMARKS
LA CROSSE      SUNNY      1  -8  66 S5        30.60S WCI  -9
SPARTA         SUNNY      4  -7  59 SW5       30.57S WCI  -5
VIROQUA        SUNNY      1  -8  66 SW3       30.52S
BOSCOBEL       SUNNY      1  -8  66 SW6       30.62S WCI -10
PRAIRIE DU CHI SUNNY     -5 -11  74 CALM      30.63R
PLATTEVILLE    SUNNY     -3  -9  77 SW7       30.58R WCI -17
$$

WIZ056-057-062-063-064-067-068-271700-
SOUTH CENTRAL WISCONSIN

CITY           SKY/WX    TMP DP  RH WIND       PRES   REMARKS
REEDSBURG      SUNNY      5  -8  56 SW5       30.56R WCI  -4
BARABOO/DELLS  SUNNY      6  -8  53 CALM      30.55R
LONE ROCK      SUNNY      1  -8  66 SW3       30.60R
MINERAL POINT  SUNNY      1  -8  66 W3        30.55S
MADISON        SUNNY      7  -7  52 W3        30.56R
MIDDLETON      SUNNY      9  -7  48 W5        30.56S WCI   1
WATERTOWN      SUNNY      7  -5  59 CALM      30.56R
MONROE         SUNNY      5  -6  61 W5        30.55R WCI  -4
JANESVILLE     SUNNY      3  -2  78 W5        30.58R WCI  -6
$$

WIZ051-052-058>065-066-070>072-271700-
SOUTHEAST WISCONSIN

CITY           SKY/WX    TMP DP  RH WIND       PRES   REMARKS
MILWAUKEE      SUNNY     12  -6  44 W7        30.56R WCI   1
WAUKESHA       SUNNY      5  -8  56 NW6       30.55R WCI  -6
MILWAUKEE/TIMM SUNNY     10  -8  44 W5        30.56R WCI   2
RACINE         SUNNY      8  -6  52 NW7       30.58R WCI  -3
BURLINGTON     SUNNY      7  -7  52 CALM      30.56R
KENOSHA        SUNNY      6  -6  57 W8        30.56R WCI  -7
FOND DU LAC    SUNNY      8  -6  52 SW8       30.54R WCI  -4
SHEBOYGAN      FAIR       9  -6  50 W12       30.53S WCI  -6
WEST BEND      SUNNY     10  -6  48 SW6       30.53S WCI   1
JUNEAU         SUNNY      6  -6  57 SW6       30.56R WCI  -4
$$

LSZ147-162-271700-
LAKE SUPERIOR

STATION/POSITION TIME  TEMP    WIND        PRES    WAVE
                       AIR SEA DIR/SP/G            HT/PER
                 (UTC) (F)     (DEG/KT/KT) (MB)    (FT/S)
DEVILS ISLAND    1600    4     240/ 17/ 21 1033.0S
PORT WING        1540    3     220/  6/ 10 1032.2S
SAXON HARBOR     1500    1     200/  5/  8 1032.2
$$

LMZ867-665-643>646-271700-
LAKE MICHIGAN

STATION/POSITION TIME  TEMP    WIND        PRES    WAVE
                       AIR SEA DIR/SP/G            HT/PER
                 (UTC) (F)     (DEG/KT/KT) (MB)    (FT/S)
NORTHPORT PIER   1529    8     250/  6/ 11 1032.2S
KEWAUNEE LAKESHO 1500    6     270/  6/  8 1032.2R
SHEBOYGAN LAKESH 1600   10     260/  9/ 12 1036.2R
PORT WASHINGTON  1540   11     310/  6/  9 1035.6R
MILWAUKEE LAKESH 1500    9     290/  7/  9   N/A
KENOSHA   LAKESH 1600    7     280/  8/ 11 1034.9R
$$

TC  - TEMPERATURE IN CELSIUS
VSB - VISIBILITY IN STATUTE MILES
WCI - WIND CHILL INDEX
HX  - HEAT INDEX



USA.gov is the U.S. government's official web portal to all federal, state and local government web resources and services.